GW4434 Weather Reports


time (UTC)temp
C
wind
direction
speed
KPH
gust
KPH
rain 1hr
cm
rain 24hr
cm
rain mn
cm
humidity
%
barometer
mb
20260503224339 20 190 0.0 0.0 0.00 0.00 0.00 33 1018.4
20260503223837 20 190 0.0 0.0 0.00 0.00 0.00 41 1018.3
20260503223334 20 190 0.0 1.6 0.00 0.00 0.00 35 1018.6
20260503222830 20 189 0.0 0.0 0.00 0.00 0.00 31 1018.3
20260503222329 20 195 0.0 1.6 0.00 0.00 0.00 33 1018.5
20260503221826 20 185 0.0 1.6 0.00 0.00 0.00 33 1018.3
20260503221325 20 195 1.6 1.6 0.00 0.00 0.00 29 1018.2
20260503220820 20 189 0.0 1.6 0.00 0.00 0.00 30 1018.3
20260503220317 21 187 0.0 1.6 0.00 0.00 0.00 31 1018.4
20260503215814 21 185 0.0 3.2 0.00 0.00 0.00 29 1018.4
20260503215311 21 205 1.6 3.2 0.00 0.00 0.00 33 1018.3
20260503214809 21 173 0.0 1.6 0.00 0.00 0.00 32 1018.4
20260503214306 21 146 0.0 1.6 0.00 0.00 0.00 28 1018.2
20260503213804 21 194 0.0 0.0 0.00 0.00 0.00 32 1018.3
20260503213301 21 202 1.6 3.2 0.00 0.00 0.00 32 1018.4
20260503212758 21 199 1.6 1.6 0.00 0.00 0.00 31 1018.6
20260503212255 21 184 0.0 1.6 0.00 0.00 0.00 32 1018.5
20260503211753 21 73 1.6 3.2 0.00 0.00 0.00 31 1018.6
20260503211249 21 195 1.6 1.6 0.00 0.00 0.00 33 1018.3
20260503210744 21 188 0.0 1.6 0.00 0.00 0.00 31 1018.6
20260503210237 21 168 0.0 3.2 0.00 0.00 0.00 32 1018.6
20260503205731 21 167 1.6 3.2 0.00 0.00 0.00 31 1018.7
20260503205228 21 68 3.2 3.2 0.00 0.00 0.00 28 1018.5
20260503204724 21 149 0.0 3.2 0.00 0.00 0.00 29 1018.8
20260503204223 21 187 1.6 1.6 0.00 0.00 0.00 31 1018.9
20260503203720 21 205 1.6 1.6 0.00 0.00 0.00 32 1018.8
20260503203217 20 195 0.0 3.2 0.00 0.00 0.00 30 1018.9
20260503202714 21 196 1.6 3.2 0.00 0.00 0.00 30 1019.0
20260503202212 21 317 3.2 3.2 0.00 0.00 0.00 31 1019.1
20260503201709 21 183 0.0 1.6 0.00 0.00 0.00 33 1019.1
20260503201207 21 186 0.0 1.6 0.00 0.00 0.00 30 1019.0
20260503200703 20 208 3.2 3.2 0.00 0.00 0.00 30 1019.4
20260503200200 20 180 0.0 1.6 0.00 0.00 0.00 30 1019.6
20260503195656 21 244 3.2 3.2 0.00 0.00 0.00 32 1019.4
20260503195153 21 198 0.0 1.6 0.00 0.00 0.00 30 1019.6
20260503194650 21 55 3.2 3.2 0.00 0.00 0.00 29 1019.7
20260503194145 21 74 3.2 4.8 0.00 0.00 0.00 28 1019.8
20260503193642 21 194 1.6 1.6 0.00 0.00 0.00 29 1019.8
20260503193137 21 204 1.6 3.2 0.00 0.00 0.00 30 1020.1
20260503192633 20 183 0.0 3.2 0.00 0.00 0.00 29 1020.2
20260503192129 21 269 3.2 3.2 0.00 0.00 0.00 30 1020.2
20260503191626 21 315 3.2 3.2 0.00 0.00 0.00 28 1020.0
20260503191123 21 161 0.0 1.6 0.00 0.00 0.00 27 1020.4
20260503190620 21 274 1.6 3.2 0.00 0.00 0.00 29 1020.4
20260503190117 21 175 0.0 1.6 0.00 0.00 0.00 28 1020.5
20260503185614 21 210 1.6 3.2 0.00 0.00 0.00 30 1020.5
20260503185109 21 279 1.6 1.6 0.00 0.00 0.00 30 1020.8
20260503184604 21 211 0.0 3.2 0.00 0.00 0.00 27 1020.8
20260503184101 22 201 1.6 3.2 0.00 0.00 0.00 29 1020.7
20260503183557 21 188 0.0 1.6 0.00 0.00 0.00 28 1020.7
20260503183055 21 154 0.0 1.6 0.00 0.00 0.00 30 1020.7
20260503182553 21 161 0.0 1.6 0.00 0.00 0.00 29 1020.9
20260503182051 21 189 0.0 3.2 0.00 0.00 0.00 30 1021.0
20260503181548 21 196 1.6 3.2 0.00 0.00 0.00 31 1020.9
20260503181044 21 150 1.6 1.6 0.00 0.00 0.00 28 1021.1
20260503180541 20 185 0.0 4.8 0.00 0.00 0.00 30 1021.0
20260503180038 21 221 3.2 4.8 0.00 0.00 0.00 28 1021.0
20260503175535 21 202 0.0 3.2 0.00 0.00 0.00 28 1021.1
20260503175032 20 165 1.6 1.6 0.00 0.00 0.00 28 1021.1
20260503174524 21 189 0.0 1.6 0.00 0.00 0.00 28 1021.3
20260503174020 20 219 1.6 1.6 0.00 0.00 0.00 31 1021.3
20260503173515 20 208 1.6 3.2 0.00 0.00 0.00 31 1021.4
20260503173012 20 267 1.6 3.2 0.00 0.00 0.00 32 1021.4
20260503172510 20 357 3.2 3.2 0.00 0.00 0.00 29 1021.4
20260503172006 20 215 1.6 3.2 0.00 0.00 0.00 30 1021.7
20260503171503 20 260 3.2 3.2 0.00 0.00 0.00 32 1021.7
20260503171001 20 10 1.6 3.2 0.00 0.00 0.00 34 1021.6
20260503170456 20 219 0.0 1.6 0.00 0.00 0.00 34 1021.7
20260503150849 16 188 1.6 1.6 0.00 0.00 0.00 44 1022.7
20260503150345 16 191 0.0 1.6 0.00 0.00 0.00 43 1023.0
20260503140309 13 152 0.0 1.6 0.00 0.00 0.00 55 1022.5
20260503131239 10 160 0.0 0.0 0.00 0.00 0.00 86 1022.4
20260503130737 10 160 0.0 0.0 0.00 0.00 0.00 86 1022.5
20260503130234 10 160 0.0 0.0 0.00 0.00 0.00 87 1022.4
20260503120153 7 158 0.0 0.0 0.00 0.00 0.00 87 1022.2
20260503110621 7 158 0.0 0.0 0.00 0.00 0.00 87 1021.2
20260503110118 7 158 0.0 0.0 0.00 0.00 0.00 87 1021.3
20260503090508 8 158 0.0 0.0 0.00 0.00 0.00 87 1019.8
20260503081434 7 158 0.0 0.0 0.00 0.00 0.00 87 1019.3
20260503080931 7 158 0.0 0.0 0.00 0.00 0.00 87 1019.1
20260503080427 7 158 0.0 0.0 0.00 0.00 0.00 87 1019.0
20260503072858 8 158 0.0 0.0 0.00 0.00 0.00 87 1018.6
20260503072355 7 158 0.0 0.0 0.00 0.00 0.00 87 1018.4
20260503071852 8 158 0.0 0.0 0.00 0.00 0.00 87 1018.7
20260503071349 8 158 0.0 0.0 0.00 0.00 0.00 87 1018.4
20260503070845 8 158 0.0 0.0 0.00 0.00 0.00 87 1018.4
20260503070343 8 158 0.0 0.0 0.00 0.00 0.00 87 1018.3
20260503060303 9 158 0.0 0.0 0.00 0.00 0.00 87 1018.4
20260503054749 9 158 0.0 0.0 0.00 0.00 0.00 87 1018.6
20260503054240 9 158 0.0 0.0 0.00 0.00 0.00 87 1018.5
20260503053738 10 158 0.0 0.0 0.00 0.00 0.00 87 1018.4
20260503053237 10 158 0.0 0.0 0.00 0.00 0.00 87 1018.4
20260503052733 10 158 0.0 0.0 0.00 0.00 0.00 87 1018.3
20260503052230 10 158 0.0 0.0 0.00 0.00 0.00 87 1018.5
20260503051724 10 158 0.0 0.0 0.00 0.00 0.00 87 1018.5
20260503051223 10 158 0.0 0.0 0.00 0.00 0.00 87 1018.4
20260503050719 10 158 0.0 0.0 0.00 0.00 0.00 87 1018.3
20260503050215 10 158 0.0 0.0 0.00 0.00 0.00 87 1018.3
20260503045713 10 158 0.0 0.0 0.00 0.00 0.00 87 1018.2
20260503045210 10 158 0.0 0.0 0.00 0.00 0.00 87 1017.9
20260503044707 10 158 0.0 0.0 0.00 0.00 0.00 87 1018.1
20260503044204 11 158 0.0 0.0 0.00 0.00 0.00 87 1018.0
20260503043701 11 158 0.0 0.0 0.00 0.00 0.00 87 1018.0
20260503043158 11 158 0.0 0.0 0.00 0.00 0.00 87 1018.0
20260503042653 11 157 0.0 0.0 0.00 0.00 0.00 87 1018.0
20260503042145 11 158 0.0 0.0 0.00 0.00 0.00 87 1017.8
20260503041641 11 158 0.0 0.0 0.00 0.00 0.00 87 1018.0
20260503041139 11 158 0.0 0.0 0.00 0.00 0.00 86 1017.9
20260503040636 11 157 0.0 0.0 0.00 0.00 0.00 87 1018.0
20260503040134 11 158 0.0 0.0 0.00 0.00 0.00 86 1017.9
20260503035630 11 158 0.0 0.0 0.00 0.76 0.76 86 1017.8
20260503035128 12 158 0.0 0.0 0.00 0.76 0.76 86 1017.7
20260503034625 12 158 0.0 0.0 0.00 0.76 0.76 86 1017.7
20260503034122 12 158 0.0 0.0 0.00 0.76 0.76 86 1017.8
20260503033619 12 158 0.0 0.0 0.00 0.76 0.76 86 1017.8
20260503033117 12 158 0.0 0.0 0.00 0.76 0.76 86 1017.7
20260503032615 12 158 0.0 0.0 0.00 0.76 0.76 86 1018.0
20260503032113 12 158 0.0 0.0 0.00 0.76 0.76 86 1017.7
20260503031610 12 158 0.0 0.0 0.00 0.76 0.76 86 1017.7
20260503031108 12 158 0.0 0.0 0.00 0.76 0.76 86 1017.8
20260503030604 12 158 0.0 0.0 0.00 0.76 0.76 86 1017.8
20260503030101 12 158 0.0 0.0 0.00 0.76 0.76 86 1017.5
20260503025557 12 158 0.0 0.0 0.00 0.76 0.76 86 1017.4
20260503025055 12 158 0.0 0.0 0.00 0.76 0.76 86 1017.3
20260503024551 12 158 0.0 0.0 0.00 0.76 0.76 86 1017.2
20260503024049 12 158 0.0 0.0 0.00 0.76 0.76 86 1017.4
20260503023545 12 158 0.0 0.0 0.00 0.76 0.76 86 1017.3
20260503023043 12 158 0.0 0.0 0.00 0.76 0.76 86 1017.1
20260503022538 12 157 0.0 0.0 0.00 0.76 0.76 86 1017.2
20260503022033 12 158 0.0 0.0 0.00 0.76 0.76 86 1017.1
20260503021530 12 158 0.0 0.0 0.00 0.76 0.76 86 1016.9
20260503021027 12 158 0.0 0.0 0.00 0.76 0.76 86 1016.8
20260503020524 12 158 0.0 0.0 0.00 0.76 0.76 85 1016.6
20260503020021 12 158 0.0 0.0 0.00 0.76 0.76 85 1016.5
20260503015517 12 158 0.0 0.0 0.00 0.76 0.76 85 1016.5
20260503015015 12 158 0.0 0.0 0.00 0.76 0.76 85 1016.7
20260503014511 12 158 0.0 0.0 0.00 0.76 0.76 85 1016.3
20260503014009 12 158 0.0 0.0 0.00 0.76 0.76 85 1016.1
20260503013506 12 158 0.0 0.0 0.00 0.76 0.76 85 1016.2
20260503013004 12 158 0.0 0.0 0.00 0.76 0.76 85 1016.2
20260503012501 12 158 0.0 0.0 0.00 0.76 0.76 85 1015.9
20260503011956 12 158 0.0 0.0 0.00 0.76 0.76 85 1015.9
20260503011454 12 158 0.0 0.0 0.00 0.76 0.76 84 1015.8
20260503010951 12 158 0.0 0.0 0.00 0.76 0.76 84 1015.7
20260503010447 12 158 0.0 0.0 0.00 0.76 0.76 84 1015.7
20260503005945 12 158 0.0 0.0 0.00 0.76 0.76 84 1015.7
20260503005442 12 158 0.0 0.0 0.00 0.76 0.76 84 1015.6
20260503004939 12 158 0.0 0.0 0.00 0.76 0.76 83 1015.7
20260503004435 12 158 0.0 0.0 0.00 0.76 0.76 83 1015.4
20260503003933 13 158 0.0 0.0 0.00 0.76 0.76 82 1015.3
20260503003429 13 158 0.0 0.0 0.00 0.76 0.76 81 1015.1
20260503002927 13 158 0.0 0.0 0.00 0.76 0.76 81 1015.0
20260503002424 13 158 0.0 0.0 0.00 0.76 0.76 81 1014.9
20260503001920 13 158 0.0 0.0 0.00 0.76 0.76 81 1014.9
20260503001416 13 158 0.0 0.0 0.00 0.76 0.76 80 1014.8
20260503000914 13 158 0.0 0.0 0.00 0.76 0.76 78 1014.8
20260503000411 14 158 0.0 0.0 0.00 0.76 0.76 78 1014.6
20260502235909 14 158 0.0 0.0 0.00 0.76 0.76 78 1014.3
20260502235405 15 158 0.0 0.0 0.00 0.76 0.76 77 1014.5
20260502234902 15 158 0.0 0.0 0.00 0.76 0.76 76 1014.5
20260502234358 15 158 0.0 0.0 0.00 0.76 0.76 73 1014.5
20260502233855 15 158 0.0 0.0 0.00 0.76 0.76 76 1014.5
20260502233351 15 158 0.0 0.0 0.00 0.76 0.76 76 1014.4
20260502232848 15 158 0.0 0.0 0.00 0.76 0.76 74 1014.4
20260502232345 15 158 0.0 0.0 0.00 0.76 0.76 73 1014.4
20260502231841 15 157 0.0 0.0 0.00 0.76 0.76 73 1014.2
20260502231339 15 157 0.0 0.0 0.00 0.76 0.76 70 1014.2
20260502230837 15 157 0.0 0.0 0.00 0.76 0.76 69 1014.0
20260502230335 15 157 0.0 0.0 0.00 0.76 0.76 68 1014.0
20260502225832 15 157 0.0 0.0 0.00 0.76 0.76 70 1013.9
20260502225328 15 157 0.0 0.0 0.00 0.76 0.76 69 1014.0
20260502224825 15 157 0.0 0.0 0.00 0.76 0.76 67 1014.0